Location: ??? ?????
(30.6482°N, 60.5850°E)
Time: 07:16:17
(UTC+00:00)

MOS 1 - Pass Details

Date: 09 April 2020
Orbit: 879 x 890 km, 99.2° (Epoch: 25 May)

Event Time Altitude Azimuth Distance (km) Brightness Sun altitude
Exits shadow 15:44:05 14° 161° (SSE) 2,279 6.1 -17.9°
Maximum altitude 15:49:05 81° 75° (ENE) 895 4.2 -18.9°
Drops below altitude 10° 15:54:45 10° 349° (N) 2,546 7.1 -20.0°
Sets 15:57:09 0° 349° (NNW) 3,490 7.9 -20.5°
